Terminal Aerodrome Forecast
Issued by NWS

Home | Current Version | Previous Version | Graphics & Text | Print | Product List | Glossary On
Versions: 1 2 3 4 5 6 7 8 9 10 11 12 13 14 15 16 17 18 19 20 21 22 23 24 25 26
000
FTUS45 KGGW 111726
TAFGDV
TAF
KGDV 111726Z 1118/1218 02009KT 5SM -SN BKN005
     FM120000 34008KT P6SM OVC015
     FM120300 36006KT P6SM OVC025
     FM120900 04009KT P6SM FEW008 BKN020
      AMD LTD TO CLD VIS AND WIND=

USA.gov is the U.S. government's official web portal to all federal, state and local government web resources and services.